Regional Weather Roundup
Issued by NWS

Home | Current Version | Previous Version | Text Only | Print | Product List | Glossary Off
Versions: 1 2 3 4 5 6 7 8 9 10 11 12 13 14 15 16 17 18 19 20 21 22 23 24 25 26 27 28 29 30 31 32 33 34 35 36 37 38 39 40 41 42 43 44 45 46 47 48 49 50

000
ASUS43 KDMX 301503
RWRIA

WEATHER ROUNDUP FOR IOWA
NATIONAL WEATHER SERVICE DES MOINES IA
1000 AM CDT TUE AUG 30 2016

NOTE: "FAIR" INDICATES FEW OR NO CLOUDS BELOW 12,000 FEET WITH NO
SIGNIFICANT WEATHER AND/OR OBSTRUCTIONS TO VISIBILITY.

* - THESE STATIONS ARE NOT NWS STATIONS...THUS NOT UNDER NWS
QUALITY CONTROL.  THEY ALSO DO NOT REPORT WEATHER SUCH
AS PRECIPITATION OR FOG.

IAZ001>003-012>014-020>022-031>034-043>046-301600-
   NORTHWEST IOWA

CITY           SKY/WX    TMP DP  RH WIND       PRES   REMARKS
CARROLL *      CLOUDY    70  68  94 CALM      30.20F
CHEROKEE *     CLOUDY    67  67  99 S5        30.20S
DENISON *      CLOUDY    70  68  94 VRB3      30.20F
LE MARS *      CLOUDY    72  68  88 S5        30.21S
ORANGE CITY *  CLOUDY    70  66  88 S5        30.21S
SHELDON *      CLOUDY    70  68  94 S6        30.19S
SIOUX CITY     CLOUDY    70  67  90 S3        30.21S
SPENCER        CLOUDY    70  66  87 SW6       30.21R
STORM LAKE *   CLOUDY    68  66  94 W7        30.20F
$$

IAZ055>058-069>071-079>083-090>094-301600-
   SOUTHWEST IOWA

CITY           SKY/WX    TMP DP  RH WIND       PRES   REMARKS
ATLANTIC *     PTSUNNY   72  70  94 CALM      30.22R
AUDUBON *      MOSUNNY   73  68  83 N8        30.23S
CLARINDA *       N/A     73  72  94 MISG      30.23R
COUNCIL BLFS * CLOUDY    73  70  88 NE5       30.22S
CRESTON *      CLOUDY    75  70  83 N6        30.23R
HARLAN  *      CLOUDY    72  68  88 CALM      30.26S
LAMONI         PTSUNNY   74  71  91 VRB3      30.19R
RED OAK *      PTSUNNY   72  70  94 CALM      30.22R
SHENANDOAH *   LGT RAIN  70 -38   1 NE3       30.21F
$$

IAZ047>049-059>061-072>074-084-301600-
   CENTRAL IOWA

CITY           SKY/WX    TMP DP  RH WIND       PRES   REMARKS
AMES           CLOUDY    72  71  97 S6        30.17F
ANKENY *         N/A    N/A N/A N/A MISG        N/A
BOONE *        CLOUDY    73  68  83 SW7       30.17F
CHARITON *       N/A     73  72  94 MISG      30.19R
DES MOINES     CLOUDY    76  70  82 NE5       30.18R
GRINNELL*      CLOUDY    72  68  88 CALM      30.18F
KNOXVILLE *    CLOUDY    73  70  88 NW6       30.17S
MARSHALLTOWN   MOSUNNY   71  71 100 NW5       30.17F
NEWTON *       CLOUDY    73  72  94 W3        30.17S
PERRY *        PTSUNNY   72  71  96 CALM      30.20S
$$

IAZ004>006-015-016-023>025-035-036-301600-
   NORTH CENTRAL IOWA

CITY           SKY/WX    TMP DP  RH WIND       PRES   REMARKS
ALGONA *       MOSUNNY   70  68  94 W8G15     30.18R
ESTHERVILLE    CLOUDY    68  67  96 W6        30.19R
FORT DODGE *   CLOUDY    70  66  88 SW7       30.18S
MASON CITY     CLOUDY    72  69  90 N6        30.21R
FOREST CITY *  CLOUDY    70  68  94 N8        30.20R
WEBSTER CITY * MOSUNNY   72  72 100 W8        30.16R
IOWA FALLS *     N/A     71  69  94 W3        30.16F
$$

IAZ007>011-017>019-026>030-037>042-050>054-066-301600-
   NORTHEAST IOWA

CITY           SKY/WX    TMP DP  RH WIND       PRES   REMARKS
CEDAR RAPIDS   CLOUDY    75  74  96 CALM      30.15F FOG
CHARLES CITY * CLOUDY    72  72 100 NW5       30.18R
CLINTON *      MOSUNNY   75  71  87 S8        30.14F
DECORAH *      CLOUDY    72  72 100 N8G16     30.16R
DUBUQUE        CLOUDY    74  70  87 S7        30.15F
MONTICELLO *   PTSUNNY   73  72  94 S5        30.14S
OELWEIN *        N/A     72  70  94 S3        30.17R
WATERLOO       CLOUDY    72  68  87 S6        30.13F
$$

IAZ064-065-067-068-078-301600-
   EAST CENTRAL IOWA

CITY           SKY/WX    TMP DP  RH WIND       PRES   REMARKS
DAVENPORT      CLOUDY    74  70  87 SE6       30.15F
IOWA CITY      LGT RAIN  74  71  91 CALM      30.16F
MT. PLEASANT * CLOUDY    78  75  90 CALM      30.15F HX  82
QUAD CITIES    CLOUDY    74  69  85 N3        30.14F
$$

IAZ062-063-075>077-085>089-095>099-301600-
   SOUTHEAST IOWA

CITY           SKY/WX    TMP DP  RH WIND       PRES   REMARKS
BURLINGTON     PTSUNNY   76  72  87 E5        30.15F
FAIRFIELD *    CLOUDY    73  70  88 CALM      30.17S
FORT MADISON * PTSUNNY   75  72  88 CALM      30.17R
KEOKUK *       PTSUNNY   77  73  88 NE5       30.16R
OSKALOOSA *    CLOUDY    70  70  98 CALM      30.18S FOG
CENTERVILLE *    N/A     72  70  94 CALM      30.20F
OTTUMWA        CLOUDY    71  69  93 NW3       30.16F
WASHINGTON *   CLOUDY    75  72  88 CALM      30.17S
$$

ABBREVIATIONS USED IN REMARKS
   TC - TEMPERATURES IN CELSIUS
  WCI - WIND CHILL INDEX
   HX - HEAT INDEX
  VSB - VISIBILITY
$$




USA.gov is the U.S. government's official web portal to all federal, state and local government web resources and services.